Location: Ellerstadt
(49.4644°N, 8.2615°E)
Time: 19:27:11
(UTC+00:00)

Vanguard 1 - Pass Details

Date: 18 June 2021
Orbit: 651 x 3831 km, 34.2° (Epoch: 29 July)

Event Time Altitude Azimuth Distance (km) Brightness Sun altitude
Rises 01:57:01 0° 271° (W) 7,008 14.1 -10.0°
Reaches altitude 10° 02:03:14 10° 262° (W) 5,447 13.4 -9.4°
Maximum altitude 02:14:16 26° 213° (SSW) 3,133 12.0 -8.3°
Drops below altitude 10° 02:21:22 10° 160° (SSE) 3,402 12.5 -7.6°
Sets 02:24:13 0° 147° (SSE) 4,028 13.0 -7.3°
